Year,Month,Day,Hour,Minute,Value (Times are PST for insolation in W/m^2)
2006,06,17,00,00,0.00
2006,06,17,00,01,0.00
2006,06,17,00,02,0.00
2006,06,17,00,03,0.00
2006,06,17,00,04,0.00
2006,06,17,00,05,0.00
2006,06,17,00,06,0.00
2006,06,17,00,07,0.00
2006,06,17,00,08,0.00
2006,06,17,00,09,0.00
2006,06,17,00,10,0.00
2006,06,17,00,11,0.00
2006,06,17,00,12,0.00
2006,06,17,00,13,0.00
2006,06,17,00,14,0.00
2006,06,17,00,15,0.00
2006,06,17,00,16,0.00
2006,06,17,00,17,0.00
2006,06,17,00,18,0.00
2006,06,17,00,19,0.00
2006,06,17,00,20,0.00
2006,06,17,00,21,0.00
2006,06,17,00,22,0.00
2006,06,17,00,23,0.00
2006,06,17,00,24,0.00
2006,06,17,00,25,0.00
2006,06,17,00,26,0.00
2006,06,17,00,27,0.00
2006,06,17,00,28,0.00
2006,06,17,00,29,0.00
2006,06,17,00,30,0.00
2006,06,17,00,31,0.00
2006,06,17,00,32,0.00
2006,06,17,00,33,0.00
2006,06,17,00,34,0.00
2006,06,17,00,35,0.00
2006,06,17,00,36,0.00
2006,06,17,00,37,0.00
2006,06,17,00,38,0.00
2006,06,17,00,39,0.00
2006,06,17,00,40,0.00
2006,06,17,00,41,0.00
2006,06,17,00,42,0.00
2006,06,17,00,43,0.00
2006,06,17,00,44,0.00
2006,06,17,00,45,0.00
2006,06,17,00,46,0.00
2006,06,17,00,47,0.00
2006,06,17,00,48,0.00
2006,06,17,00,49,0.00
2006,06,17,00,50,0.00
2006,06,17,00,51,0.00
2006,06,17,00,52,0.00
2006,06,17,00,53,0.00
2006,06,17,00,54,0.00
2006,06,17,00,55,0.00
2006,06,17,00,56,0.00
2006,06,17,00,57,0.00
2006,06,17,00,58,0.00
2006,06,17,00,59,0.00
2006,06,17,01,00,0.00
2006,06,17,01,01,0.00
2006,06,17,01,02,0.00
2006,06,17,01,03,0.00
2006,06,17,01,04,0.00
2006,06,17,01,05,0.00
2006,06,17,01,06,0.00
2006,06,17,01,07,0.00
2006,06,17,01,08,0.00
2006,06,17,01,09,0.00
2006,06,17,01,10,0.00
2006,06,17,01,11,0.00
2006,06,17,01,12,0.00
2006,06,17,01,13,0.00
2006,06,17,01,14,0.00
2006,06,17,01,15,0.00
2006,06,17,01,16,0.00
2006,06,17,01,17,0.00
2006,06,17,01,18,0.00
2006,06,17,01,19,0.00
2006,06,17,01,20,0.00
2006,06,17,01,21,0.00
2006,06,17,01,22,0.00
2006,06,17,01,23,0.00
2006,06,17,01,24,0.00
2006,06,17,01,25,0.00
2006,06,17,01,26,0.00
2006,06,17,01,27,0.00
2006,06,17,01,28,0.00
2006,06,17,01,29,0.00
2006,06,17,01,30,0.00
2006,06,17,01,31,0.00
2006,06,17,01,32,0.00
2006,06,17,01,33,0.00
2006,06,17,01,34,0.00
2006,06,17,01,35,0.00
2006,06,17,01,36,0.00
2006,06,17,01,37,0.00
2006,06,17,01,38,0.00
2006,06,17,01,39,0.00
2006,06,17,01,40,0.00
2006,06,17,01,41,0.00
2006,06,17,01,42,0.00
2006,06,17,01,43,0.00
2006,06,17,01,44,0.00
2006,06,17,01,45,0.00
2006,06,17,01,46,0.00
2006,06,17,01,47,0.00
2006,06,17,01,48,0.00
2006,06,17,01,49,0.00
2006,06,17,01,50,0.00
2006,06,17,01,51,0.00
2006,06,17,01,52,0.00
2006,06,17,01,53,0.00
2006,06,17,01,54,0.00
2006,06,17,01,55,0.00
2006,06,17,01,56,0.00
2006,06,17,01,57,0.00
2006,06,17,01,58,0.00
2006,06,17,01,59,0.00
2006,06,17,02,00,0.00
2006,06,17,02,01,0.00
2006,06,17,02,02,0.00
2006,06,17,02,03,0.00
2006,06,17,02,04,0.00
2006,06,17,02,05,0.00
2006,06,17,02,06,0.00
2006,06,17,02,07,0.00
2006,06,17,02,08,0.00
2006,06,17,02,09,0.00
2006,06,17,02,10,0.00
2006,06,17,02,11,0.00
2006,06,17,02,12,0.00
2006,06,17,02,13,0.00
2006,06,17,02,14,0.00
2006,06,17,02,15,0.00
2006,06,17,02,16,0.00
2006,06,17,02,17,0.00
2006,06,17,02,18,0.00
2006,06,17,02,19,0.00
2006,06,17,02,20,0.00
2006,06,17,02,21,0.00
2006,06,17,02,22,0.00
2006,06,17,02,23,0.00
2006,06,17,02,24,0.00
2006,06,17,02,25,0.00
2006,06,17,02,26,0.00
2006,06,17,02,27,0.00
2006,06,17,02,28,0.00
2006,06,17,02,29,0.00
2006,06,17,02,30,0.00
2006,06,17,02,31,0.00
2006,06,17,02,32,0.00
2006,06,17,02,33,0.00
2006,06,17,02,34,0.00
2006,06,17,02,35,0.00
2006,06,17,02,36,0.00
2006,06,17,02,37,0.00
2006,06,17,02,38,0.00
2006,06,17,02,39,0.00
2006,06,17,02,40,0.00
2006,06,17,02,41,0.00
2006,06,17,02,42,0.00
2006,06,17,02,43,0.00
2006,06,17,02,44,0.00
2006,06,17,02,45,0.00
2006,06,17,02,46,0.00
2006,06,17,02,47,0.00
2006,06,17,02,48,0.00
2006,06,17,02,49,0.00
2006,06,17,02,50,0.00
2006,06,17,02,51,0.00
2006,06,17,02,52,0.00
2006,06,17,02,53,0.00
2006,06,17,02,54,0.00
2006,06,17,02,55,0.00
2006,06,17,02,56,0.00
2006,06,17,02,57,0.00
2006,06,17,02,58,0.00
2006,06,17,02,59,0.00
2006,06,17,03,00,0.00
2006,06,17,03,01,0.00
2006,06,17,03,02,0.00
2006,06,17,03,03,0.00
2006,06,17,03,04,0.00
2006,06,17,03,05,0.00
2006,06,17,03,06,0.00
2006,06,17,03,07,0.00
2006,06,17,03,08,0.00
2006,06,17,03,09,0.00
2006,06,17,03,10,0.00
2006,06,17,03,11,0.00
2006,06,17,03,12,0.00
2006,06,17,03,13,0.00
2006,06,17,03,14,0.00
2006,06,17,03,15,0.00
2006,06,17,03,16,0.00
2006,06,17,03,17,0.00
2006,06,17,03,18,0.00
2006,06,17,03,19,0.00
2006,06,17,03,20,0.00
2006,06,17,03,21,0.00
2006,06,17,03,22,0.00
2006,06,17,03,23,0.00
2006,06,17,03,24,0.00
2006,06,17,03,25,0.00
2006,06,17,03,26,0.00
2006,06,17,03,27,0.00
2006,06,17,03,28,0.00
2006,06,17,03,29,0.00
2006,06,17,03,30,0.00
2006,06,17,03,31,0.00
2006,06,17,03,32,0.00
2006,06,17,03,33,0.00
2006,06,17,03,34,0.00
2006,06,17,03,35,0.00
2006,06,17,03,36,0.00
2006,06,17,03,37,0.00
2006,06,17,03,38,0.00
2006,06,17,03,39,0.00
2006,06,17,03,40,0.00
2006,06,17,03,41,0.00
2006,06,17,03,42,0.00
2006,06,17,03,43,0.00
2006,06,17,03,44,0.00
2006,06,17,03,45,0.00
2006,06,17,03,46,0.00
2006,06,17,03,47,0.00
2006,06,17,03,48,0.00
2006,06,17,03,49,0.00
2006,06,17,03,50,0.00
2006,06,17,03,51,0.00
2006,06,17,03,52,0.00
2006,06,17,03,53,0.00
2006,06,17,03,54,0.00
2006,06,17,03,55,0.00
2006,06,17,03,56,0.00
2006,06,17,03,57,0.00
2006,06,17,03,58,0.00
2006,06,17,03,59,0.00
2006,06,17,04,00,0.00
2006,06,17,04,01,0.00
2006,06,17,04,02,0.00
2006,06,17,04,03,0.00
2006,06,17,04,04,0.00
2006,06,17,04,05,0.00
2006,06,17,04,06,0.00
2006,06,17,04,07,0.00
2006,06,17,04,08,0.00
2006,06,17,04,09,0.00
2006,06,17,04,10,0.00
2006,06,17,04,11,0.00
2006,06,17,04,12,0.00
2006,06,17,04,13,0.00
2006,06,17,04,14,0.00
2006,06,17,04,15,0.00
2006,06,17,04,16,0.00
2006,06,17,04,17,0.00
2006,06,17,04,18,0.00
2006,06,17,04,19,0.00
2006,06,17,04,20,0.00
2006,06,17,04,21,0.00
2006,06,17,04,22,0.00
2006,06,17,04,23,0.00
2006,06,17,04,24,0.00
2006,06,17,04,25,0.00
2006,06,17,04,26,0.00
2006,06,17,04,27,0.00
2006,06,17,04,28,0.00
2006,06,17,04,29,0.00
2006,06,17,04,30,0.00
2006,06,17,04,31,0.00
2006,06,17,04,32,0.00
2006,06,17,04,33,0.00
2006,06,17,04,34,0.00
2006,06,17,04,35,0.00
2006,06,17,04,36,0.00
2006,06,17,04,37,0.00
2006,06,17,04,38,0.00
2006,06,17,04,39,0.00
2006,06,17,04,40,0.00
2006,06,17,04,41,0.00
2006,06,17,04,42,0.00
2006,06,17,04,43,0.00
2006,06,17,04,44,0.00
2006,06,17,04,45,0.00
2006,06,17,04,46,0.00
2006,06,17,04,47,0.00
2006,06,17,04,48,0.00
2006,06,17,04,49,0.00
2006,06,17,04,50,0.00
2006,06,17,04,51,0.00
2006,06,17,04,52,0.00
2006,06,17,04,53,0.00
2006,06,17,04,54,0.00
2006,06,17,04,55,0.00
2006,06,17,04,56,0.00
2006,06,17,04,57,0.00
2006,06,17,04,58,0.00
2006,06,17,04,59,0.00
2006,06,17,05,00,0.00
2006,06,17,05,01,0.00
2006,06,17,05,02,0.00
2006,06,17,05,03,0.00
2006,06,17,05,04,0.00
2006,06,17,05,05,0.00
2006,06,17,05,06,0.00
2006,06,17,05,07,0.00
2006,06,17,05,08,0.00
2006,06,17,05,09,0.00
2006,06,17,05,10,0.00
2006,06,17,05,11,0.00
2006,06,17,05,12,0.00
2006,06,17,05,13,0.00
2006,06,17,05,14,0.00
2006,06,17,05,15,0.00
2006,06,17,05,16,0.00
2006,06,17,05,17,0.00
2006,06,17,05,18,0.00
2006,06,17,05,19,0.00
2006,06,17,05,20,0.00
2006,06,17,05,21,0.00
2006,06,17,05,22,0.00
2006,06,17,05,23,0.00
2006,06,17,05,24,0.00
2006,06,17,05,25,0.00
2006,06,17,05,26,0.00
2006,06,17,05,27,0.00
2006,06,17,05,28,0.00
2006,06,17,05,29,0.00
2006,06,17,05,30,0.00
2006,06,17,05,31,0.00
2006,06,17,05,32,0.00
2006,06,17,05,33,0.00
2006,06,17,05,34,0.00
2006,06,17,05,35,0.00
2006,06,17,05,36,0.00
2006,06,17,05,37,0.00
2006,06,17,05,38,0.00
2006,06,17,05,39,0.00
2006,06,17,05,40,0.00
2006,06,17,05,41,0.00
2006,06,17,05,42,0.00
2006,06,17,05,43,0.00
2006,06,17,05,44,5.00
2006,06,17,05,45,5.00
2006,06,17,05,46,5.00
2006,06,17,05,47,5.00
2006,06,17,05,48,5.00
2006,06,17,05,49,6.80
2006,06,17,05,50,7.30
2006,06,17,05,51,9.00
2006,06,17,05,52,9.00
2006,06,17,05,53,9.00
2006,06,17,05,54,9.00
2006,06,17,05,55,9.00
2006,06,17,05,56,9.00
2006,06,17,05,57,9.00
2006,06,17,05,58,9.00
2006,06,17,05,59,9.00
2006,06,17,06,00,9.00
2006,06,17,06,01,9.00
2006,06,17,06,02,9.00
2006,06,17,06,03,9.00
2006,06,17,06,04,9.00
2006,06,17,06,05,9.00
2006,06,17,06,06,10.70
2006,06,17,06,07,11.00
2006,06,17,06,08,11.00
2006,06,17,06,09,11.00
2006,06,17,06,10,11.00
2006,06,17,06,11,11.70
2006,06,17,06,12,12.00
2006,06,17,06,13,12.30
2006,06,17,06,14,14.00
2006,06,17,06,15,14.80
2006,06,17,06,16,17.20
2006,06,17,06,17,18.00
2006,06,17,06,18,18.80
2006,06,17,06,19,21.00
2006,06,17,06,20,21.60
2006,06,17,06,21,23.90
2006,06,17,06,22,25.00
2006,06,17,06,23,25.70
2006,06,17,06,24,27.70
2006,06,17,06,25,28.00
2006,06,17,06,26,28.00
2006,06,17,06,27,28.00
2006,06,17,06,28,29.20
2006,06,17,06,29,31.50
2006,06,17,06,30,32.00
2006,06,17,06,31,32.00
2006,06,17,06,32,33.10
2006,06,17,06,33,36.00
2006,06,17,06,34,37.00
2006,06,17,06,35,38.60
2006,06,17,06,36,39.00
2006,06,17,06,37,39.20
2006,06,17,06,38,40.00
2006,06,17,06,39,40.00
2006,06,17,06,40,40.00
2006,06,17,06,41,40.00
2006,06,17,06,42,40.20
2006,06,17,06,43,42.00
2006,06,17,06,44,42.00
2006,06,17,06,45,43.00
2006,06,17,06,46,44.00
2006,06,17,06,47,44.00
2006,06,17,06,48,44.20
2006,06,17,06,49,46.00
2006,06,17,06,50,47.20
2006,06,17,06,51,50.10
2006,06,17,06,52,52.40
2006,06,17,06,53,53.80
2006,06,17,06,54,58.10
2006,06,17,06,55,60.80
2006,06,17,06,56,63.90
2006,06,17,06,57,66.10
2006,06,17,06,58,68.30
2006,06,17,06,59,69.80
2006,06,17,07,00,72.00
2006,06,17,07,01,73.50
2006,06,17,07,02,77.90
2006,06,17,07,03,80.10
2006,06,17,07,04,82.40
2006,06,17,07,05,83.90
2006,06,17,07,06,84.00
2006,06,17,07,07,84.00
2006,06,17,07,08,84.90
2006,06,17,07,09,88.40
2006,06,17,07,10,90.00
2006,06,17,07,11,90.00
2006,06,17,07,12,92.70
2006,06,17,07,13,106.30
2006,06,17,07,14,104.50
2006,06,17,07,15,102.80
2006,06,17,07,16,99.00
2006,06,17,07,17,96.90
2006,06,17,07,18,92.60
2006,06,17,07,19,90.70
2006,06,17,07,20,87.90
2006,06,17,07,21,84.00
2006,06,17,07,22,79.80
2006,06,17,07,23,79.00
2006,06,17,07,24,79.40
2006,06,17,07,25,81.80
2006,06,17,07,26,83.50
2006,06,17,07,27,86.60
2006,06,17,07,28,89.70
2006,06,17,07,29,91.10
2006,06,17,07,30,93.50
2006,06,17,07,31,95.80
2006,06,17,07,32,97.60
2006,06,17,07,33,99.40
2006,06,17,07,34,101.70
2006,06,17,07,35,103.90
2006,06,17,07,36,104.20
2006,06,17,07,37,105.00
2006,06,17,07,38,106.10
2006,06,17,07,39,108.40
2006,06,17,07,40,109.00
2006,06,17,07,41,111.30
2006,06,17,07,42,113.00
2006,06,17,07,43,113.00
2006,06,17,07,44,113.00
2006,06,17,07,45,113.00
2006,06,17,07,46,113.00
2006,06,17,07,47,114.70
2006,06,17,07,48,118.60
2006,06,17,07,49,121.40
2006,06,17,07,50,125.40
2006,06,17,07,51,130.60
2006,06,17,07,52,136.50
2006,06,17,07,53,141.50
2006,06,17,07,54,145.30
2006,06,17,07,55,150.50
2006,06,17,07,56,156.00
2006,06,17,07,57,161.90
2006,06,17,07,58,170.70
2006,06,17,07,59,177.10
2006,06,17,08,00,182.40
2006,06,17,08,01,186.50
2006,06,17,08,02,191.30
2006,06,17,08,03,197.70
2006,06,17,08,04,204.20
2006,06,17,08,05,212.50
2006,06,17,08,06,220.20
2006,06,17,08,07,228.70
2006,06,17,08,08,236.60
2006,06,17,08,09,243.00
2006,06,17,08,10,251.30
2006,06,17,08,11,259.00
2006,06,17,08,12,262.80
2006,06,17,08,13,264.00
2006,06,17,08,14,264.70
2006,06,17,08,15,270.00
2006,06,17,08,16,270.30
2006,06,17,08,17,274.60
2006,06,17,08,18,262.00
2006,06,17,08,19,262.00
2006,06,17,08,20,259.20
2006,06,17,08,21,255.50
2006,06,17,08,22,255.40
2006,06,17,08,23,258.60
2006,06,17,08,24,257.90
2006,06,17,08,25,252.70
2006,06,17,08,26,251.00
2006,06,17,08,27,250.10
2006,06,17,08,28,254.80
2006,06,17,08,29,265.50
2006,06,17,08,30,273.10
2006,06,17,08,31,287.70
2006,06,17,08,32,308.20
2006,06,17,08,33,337.50
2006,06,17,08,34,352.70
2006,06,17,08,35,326.30
2006,06,17,08,36,312.10
2006,06,17,08,37,307.20
2006,06,17,08,38,306.00
2006,06,17,08,39,301.30
2006,06,17,08,40,299.60
2006,06,17,08,41,304.10
2006,06,17,08,42,309.50
2006,06,17,08,43,315.60
2006,06,17,08,44,321.20
2006,06,17,08,45,330.90
2006,06,17,08,46,329.10
2006,06,17,08,47,348.10
2006,06,17,08,48,349.70
2006,06,17,08,49,343.00
2006,06,17,08,50,351.30
2006,06,17,08,51,359.40
2006,06,17,08,52,372.80
2006,06,17,08,53,398.20
2006,06,17,08,54,411.00
2006,06,17,08,55,409.00
2006,06,17,08,56,410.40
2006,06,17,08,57,401.40
2006,06,17,08,58,399.20
2006,06,17,08,59,394.00
2006,06,17,09,00,394.00
2006,06,17,09,01,384.50
2006,06,17,09,02,385.80
2006,06,17,09,03,403.30
2006,06,17,09,04,424.90
2006,06,17,09,05,410.20
2006,06,17,09,06,404.00
2006,06,17,09,07,404.00
2006,06,17,09,08,386.70
2006,06,17,09,09,389.00
2006,06,17,09,10,392.20
2006,06,17,09,11,385.60
2006,06,17,09,12,381.20
2006,06,17,09,13,380.70
2006,06,17,09,14,401.00
2006,06,17,09,15,422.50
2006,06,17,09,16,427.00
2006,06,17,09,17,435.80
2006,06,17,09,18,489.10
2006,06,17,09,19,514.00
2006,06,17,09,20,525.70
2006,06,17,09,21,500.70
2006,06,17,09,22,428.90
2006,06,17,09,23,469.00
2006,06,17,09,24,419.70
2006,06,17,09,25,387.20
2006,06,17,09,26,404.40
2006,06,17,09,27,430.90
2006,06,17,09,28,433.80
2006,06,17,09,29,407.70
2006,06,17,09,30,392.50
2006,06,17,09,31,374.70
2006,06,17,09,32,360.00
2006,06,17,09,33,354.20
2006,06,17,09,34,349.30
2006,06,17,09,35,345.00
2006,06,17,09,36,345.00
2006,06,17,09,37,341.70
2006,06,17,09,38,333.10
2006,06,17,09,39,325.70
2006,06,17,09,40,320.30
2006,06,17,09,41,322.00
2006,06,17,09,42,328.30
2006,06,17,09,43,331.60
2006,06,17,09,44,338.60
2006,06,17,09,45,408.00
2006,06,17,09,46,482.10
2006,06,17,09,47,491.00
2006,06,17,09,48,474.50
2006,06,17,09,49,469.00
2006,06,17,09,50,469.00
2006,06,17,09,51,457.90
2006,06,17,09,52,431.00
2006,06,17,09,53,431.00
2006,06,17,09,54,466.20
2006,06,17,09,55,549.10
2006,06,17,09,56,632.70
2006,06,17,09,57,631.00
2006,06,17,09,58,636.30
2006,06,17,09,59,642.00
2006,06,17,10,00,642.00
2006,06,17,10,01,636.90
2006,06,17,10,02,524.60
2006,06,17,10,03,513.60
2006,06,17,10,04,524.00
2006,06,17,10,05,486.20
2006,06,17,10,06,455.00
2006,06,17,10,07,447.20
2006,06,17,10,08,457.40
2006,06,17,10,09,462.40
2006,06,17,10,10,500.20
2006,06,17,10,11,586.80
2006,06,17,10,12,621.00
2006,06,17,10,13,621.00
2006,06,17,10,14,621.00
2006,06,17,10,15,588.50
2006,06,17,10,16,538.00
2006,06,17,10,17,538.00
2006,06,17,10,18,542.10
2006,06,17,10,19,555.30
2006,06,17,10,20,528.20
2006,06,17,10,21,506.00
2006,06,17,10,22,506.00
2006,06,17,10,23,506.00
2006,06,17,10,24,565.50
2006,06,17,10,25,558.20
2006,06,17,10,26,557.80
2006,06,17,10,27,555.00
2006,06,17,10,28,577.00
2006,06,17,10,29,577.00
2006,06,17,10,30,577.00
2006,06,17,10,31,577.00
2006,06,17,10,32,588.00
2006,06,17,10,33,613.00
2006,06,17,10,34,613.00
2006,06,17,10,35,627.80
2006,06,17,10,36,633.00
2006,06,17,10,37,625.90
2006,06,17,10,38,612.00
2006,06,17,10,39,683.10
2006,06,17,10,40,683.20
2006,06,17,10,41,741.30
2006,06,17,10,42,754.60
2006,06,17,10,43,570.00
2006,06,17,10,44,570.00
2006,06,17,10,45,570.00
2006,06,17,10,46,570.00
2006,06,17,10,47,570.00
2006,06,17,10,48,788.00
2006,06,17,10,49,828.50
2006,06,17,10,50,854.00
2006,06,17,10,51,854.00
2006,06,17,10,52,854.00
2006,06,17,10,53,911.00
2006,06,17,10,54,929.40
2006,06,17,10,55,925.00
2006,06,17,10,56,925.00
2006,06,17,10,57,908.80
2006,06,17,10,58,842.10
2006,06,17,10,59,872.70
2006,06,17,11,00,895.00
2006,06,17,11,01,879.50
2006,06,17,11,02,888.40
2006,06,17,11,03,898.90
2006,06,17,11,04,894.50
2006,06,17,11,05,860.80
2006,06,17,11,06,885.70
2006,06,17,11,07,884.00
2006,06,17,11,08,884.00
2006,06,17,11,09,885.20
2006,06,17,11,10,886.00
2006,06,17,11,11,882.50
2006,06,17,11,12,880.30
2006,06,17,11,13,876.10
2006,06,17,11,14,873.10
2006,06,17,11,15,873.20
2006,06,17,11,16,871.10
2006,06,17,11,17,871.80
2006,06,17,11,18,874.20
2006,06,17,11,19,875.00
2006,06,17,11,20,875.00
2006,06,17,11,21,876.20
2006,06,17,11,22,877.00
2006,06,17,11,23,880.70
2006,06,17,11,24,882.00
2006,06,17,11,25,882.70
2006,06,17,11,26,884.00
2006,06,17,11,27,884.00
2006,06,17,11,28,887.30
2006,06,17,11,29,890.80
2006,06,17,11,30,890.50
2006,06,17,11,31,889.70
2006,06,17,11,32,891.00
2006,06,17,11,33,891.00
2006,06,17,11,34,895.00
2006,06,17,11,35,896.30
2006,06,17,11,36,900.00
2006,06,17,11,37,902.00
2006,06,17,11,38,902.30
2006,06,17,11,39,901.40
2006,06,17,11,40,903.70
2006,06,17,11,41,902.50
2006,06,17,11,42,906.00
2006,06,17,11,43,908.20
2006,06,17,11,44,907.00
2006,06,17,11,45,907.00
2006,06,17,11,46,913.10
2006,06,17,11,47,916.00
2006,06,17,11,48,916.60
2006,06,17,11,49,918.40
2006,06,17,11,50,919.00
2006,06,17,11,51,923.20
2006,06,17,11,52,925.90
2006,06,17,11,53,932.00
2006,06,17,11,54,932.90
2006,06,17,11,55,935.00
2006,06,17,11,56,935.00
2006,06,17,11,57,935.00
2006,06,17,11,58,934.70
2006,06,17,11,59,928.90
2006,06,17,12,00,932.70
2006,06,17,12,01,932.50
2006,06,17,12,02,933.00
2006,06,17,12,03,936.00
2006,06,17,12,04,938.90
2006,06,17,12,05,940.00
2006,06,17,12,06,940.70
2006,06,17,12,07,944.00
2006,06,17,12,08,946.70
2006,06,17,12,09,946.20
2006,06,17,12,10,946.60
2006,06,17,12,11,953.00
2006,06,17,12,12,953.00
2006,06,17,12,13,954.60
2006,06,17,12,14,959.80
2006,06,17,12,15,962.00
2006,06,17,12,16,965.30
2006,06,17,12,17,970.50
2006,06,17,12,18,976.30
2006,06,17,12,19,983.50
2006,06,17,12,20,988.90
2006,06,17,12,21,996.00
2006,06,17,12,22,1008.50
2006,06,17,12,23,958.50
2006,06,17,12,24,824.00
2006,06,17,12,25,824.00
2006,06,17,12,26,1002.80
2006,06,17,12,27,1085.20
2006,06,17,12,28,1096.40
2006,06,17,12,29,1113.00
2006,06,17,12,30,1147.80
2006,06,17,12,31,1196.40
2006,06,17,12,32,1250.00
2006,06,17,12,33,1262.00
2006,06,17,12,34,1246.30
2006,06,17,12,35,1172.00
2006,06,17,12,36,1172.00
2006,06,17,12,37,949.80
2006,06,17,12,38,807.00
2006,06,17,12,39,920.70
2006,06,17,12,40,927.00
2006,06,17,12,41,943.00
2006,06,17,12,42,937.00
2006,06,17,12,43,937.00
2006,06,17,12,44,937.00
2006,06,17,12,45,937.00
2006,06,17,12,46,937.00
2006,06,17,12,47,939.40
2006,06,17,12,48,918.50
2006,06,17,12,49,893.00
2006,06,17,12,50,968.90
2006,06,17,12,51,968.90
2006,06,17,12,52,720.90
2006,06,17,12,53,663.00
2006,06,17,12,54,663.00
2006,06,17,12,55,829.00
2006,06,17,12,56,912.00
2006,06,17,12,57,1053.60
2006,06,17,12,58,1060.00
2006,06,17,12,59,1060.00
2006,06,17,13,00,1060.00
2006,06,17,13,01,1060.00
2006,06,17,13,02,1060.00
2006,06,17,13,03,1078.70
2006,06,17,13,04,1197.00
2006,06,17,13,05,1197.00
2006,06,17,13,06,1197.00
2006,06,17,13,07,1197.00
2006,06,17,13,08,1197.00
2006,06,17,13,09,1192.40
2006,06,17,13,10,1146.90
2006,06,17,13,11,1121.40
2006,06,17,13,12,1137.20
2006,06,17,13,13,1128.30
2006,06,17,13,14,1126.20
2006,06,17,13,15,1063.60
2006,06,17,13,16,1054.30
2006,06,17,13,17,1102.30
2006,06,17,13,18,1100.00
2006,06,17,13,19,1080.20
2006,06,17,13,20,1070.00
2006,06,17,13,21,1076.00
2006,06,17,13,22,1076.00
2006,06,17,13,23,1063.50
2006,06,17,13,24,1043.90
2006,06,17,13,25,1030.40
2006,06,17,13,26,1020.30
2006,06,17,13,27,1010.30
2006,06,17,13,28,1005.90
2006,06,17,13,29,1000.50
2006,06,17,13,30,998.90
2006,06,17,13,31,1001.60
2006,06,17,13,32,1002.00
2006,06,17,13,33,1002.00
2006,06,17,13,34,1002.80
2006,06,17,13,35,1001.80
2006,06,17,13,36,998.00
2006,06,17,13,37,997.00
2006,06,17,13,38,984.10
2006,06,17,13,39,978.50
2006,06,17,13,40,975.80
2006,06,17,13,41,973.00
2006,06,17,13,42,972.00
2006,06,17,13,43,970.30
2006,06,17,13,44,970.00
2006,06,17,13,45,969.20
2006,06,17,13,46,967.00
2006,06,17,13,47,967.00
2006,06,17,13,48,969.10
2006,06,17,13,49,969.10
2006,06,17,13,50,967.00
2006,06,17,13,51,967.60
2006,06,17,13,52,969.00
2006,06,17,13,53,969.00
2006,06,17,13,54,969.00
2006,06,17,13,55,969.00
2006,06,17,13,56,970.00
2006,06,17,13,57,971.10
2006,06,17,13,58,974.00
2006,06,17,13,59,975.30
2006,06,17,14,00,976.00
2006,06,17,14,01,976.10
2006,06,17,14,02,979.00
2006,06,17,14,03,979.00
2006,06,17,14,04,979.00
2006,06,17,14,05,974.50
2006,06,17,14,06,970.50
2006,06,17,14,07,970.10
2006,06,17,14,08,972.40
2006,06,17,14,09,974.00
2006,06,17,14,10,972.00
2006,06,17,14,11,969.30
2006,06,17,14,12,969.00
2006,06,17,14,13,968.70
2006,06,17,14,14,965.90
2006,06,17,14,15,969.00
2006,06,17,14,16,968.00
2006,06,17,14,17,965.70
2006,06,17,14,18,965.00
2006,06,17,14,19,969.70
2006,06,17,14,20,969.00
2006,06,17,14,21,969.00
2006,06,17,14,22,969.00
2006,06,17,14,23,966.60
2006,06,17,14,24,965.00
2006,06,17,14,25,969.00
2006,06,17,14,26,971.00
2006,06,17,14,27,973.10
2006,06,17,14,28,972.00
2006,06,17,14,29,972.00
2006,06,17,14,30,967.90
2006,06,17,14,31,969.40
2006,06,17,14,32,972.00
2006,06,17,14,33,972.00
2006,06,17,14,34,970.20
2006,06,17,14,35,967.50
2006,06,17,14,36,965.30
2006,06,17,14,37,960.70
2006,06,17,14,38,953.00
2006,06,17,14,39,962.00
2006,06,17,14,40,959.80
2006,06,17,14,41,930.20
2006,06,17,14,42,919.20
2006,06,17,14,43,919.00
2006,06,17,14,44,924.80
2006,06,17,14,45,935.00
2006,06,17,14,46,935.00
2006,06,17,14,47,935.00
2006,06,17,14,48,936.90
2006,06,17,14,49,938.70
2006,06,17,14,50,936.20
2006,06,17,14,51,934.00
2006,06,17,14,52,931.00
2006,06,17,14,53,931.60
2006,06,17,14,54,926.30
2006,06,17,14,55,923.00
2006,06,17,14,56,923.00
2006,06,17,14,57,922.00
2006,06,17,14,58,922.30
2006,06,17,14,59,923.00
2006,06,17,15,00,957.10
2006,06,17,15,01,978.20
2006,06,17,15,02,974.00
2006,06,17,15,03,1014.60
2006,06,17,15,04,1013.90
2006,06,17,15,05,1009.70
2006,06,17,15,06,1009.00
2006,06,17,15,07,1010.20
2006,06,17,15,08,1014.00
2006,06,17,15,09,1014.00
2006,06,17,15,10,1014.00
2006,06,17,15,11,1103.20
2006,06,17,15,12,1123.00
2006,06,17,15,13,927.30
2006,06,17,15,14,452.00
2006,06,17,15,15,452.00
2006,06,17,15,16,452.00
2006,06,17,15,17,976.30
2006,06,17,15,18,1030.00
2006,06,17,15,19,1030.00
2006,06,17,15,20,1030.00
2006,06,17,15,21,987.90
2006,06,17,15,22,965.80
2006,06,17,15,23,982.40
2006,06,17,15,24,984.00
2006,06,17,15,25,744.30
2006,06,17,15,26,295.00
2006,06,17,15,27,295.00
2006,06,17,15,28,295.00
2006,06,17,15,29,317.30
2006,06,17,15,30,809.00
2006,06,17,15,31,809.00
2006,06,17,15,32,861.60
2006,06,17,15,33,919.00
2006,06,17,15,34,919.00
2006,06,17,15,35,874.30
2006,06,17,15,36,870.90
2006,06,17,15,37,870.60
2006,06,17,15,38,862.40
2006,06,17,15,39,857.50
2006,06,17,15,40,853.60
2006,06,17,15,41,850.70
2006,06,17,15,42,847.00
2006,06,17,15,43,846.60
2006,06,17,15,44,843.80
2006,06,17,15,45,842.00
2006,06,17,15,46,837.90
2006,06,17,15,47,835.10
2006,06,17,15,48,833.70
2006,06,17,15,49,829.20
2006,06,17,15,50,826.90
2006,06,17,15,51,822.50
2006,06,17,15,52,828.80
2006,06,17,15,53,831.70
2006,06,17,15,54,846.10
2006,06,17,15,55,859.20
2006,06,17,15,56,863.00
2006,06,17,15,57,858.00
2006,06,17,15,58,853.40
2006,06,17,15,59,844.70
2006,06,17,16,00,836.50
2006,06,17,16,01,832.10
2006,06,17,16,02,831.00
2006,06,17,16,03,831.00
2006,06,17,16,04,830.00
2006,06,17,16,05,828.30
2006,06,17,16,06,817.00
2006,06,17,16,07,769.00
2006,06,17,16,08,745.00
2006,06,17,16,09,824.00
2006,06,17,16,10,855.00
2006,06,17,16,11,853.30
2006,06,17,16,12,842.00
2006,06,17,16,13,842.00
2006,06,17,16,14,842.00
2006,06,17,16,15,708.20
2006,06,17,16,16,671.00
2006,06,17,16,17,671.00
2006,06,17,16,18,549.90
2006,06,17,16,19,347.00
2006,06,17,16,20,339.50
2006,06,17,16,21,381.90
2006,06,17,16,22,405.60
2006,06,17,16,23,527.00
2006,06,17,16,24,555.20
2006,06,17,16,25,568.70
2006,06,17,16,26,529.80
2006,06,17,16,27,579.60
2006,06,17,16,28,607.20
2006,06,17,16,29,580.00
2006,06,17,16,30,518.20
2006,06,17,16,31,436.60
2006,06,17,16,32,421.60
2006,06,17,16,33,483.50
2006,06,17,16,34,507.30
2006,06,17,16,35,563.00
2006,06,17,16,36,467.30
2006,06,17,16,37,333.10
2006,06,17,16,38,351.50
2006,06,17,16,39,347.40
2006,06,17,16,40,350.10
2006,06,17,16,41,372.20
2006,06,17,16,42,366.30
2006,06,17,16,43,369.00
2006,06,17,16,44,369.00
2006,06,17,16,45,592.90
2006,06,17,16,46,642.40
2006,06,17,16,47,659.00
2006,06,17,16,48,650.10
2006,06,17,16,49,612.90
2006,06,17,16,50,543.60
2006,06,17,16,51,482.50
2006,06,17,16,52,431.40
2006,06,17,16,53,445.40
2006,06,17,16,54,456.50
2006,06,17,16,55,462.00
2006,06,17,16,56,500.00
2006,06,17,16,57,518.50
2006,06,17,16,58,585.00
2006,06,17,16,59,529.90
2006,06,17,17,00,435.00
2006,06,17,17,01,422.70
2006,06,17,17,02,429.60
2006,06,17,17,03,406.10
2006,06,17,17,04,412.50
2006,06,17,17,05,448.60
2006,06,17,17,06,505.60
2006,06,17,17,07,546.30